[[{"header":{"parameterUnit":"m.s-1","parameterCategory":1,"la1":30.2991,"la2":30.254,"lo1":-89.0895,"lo2":-89.0444,"dy":0.0017,"dx":0.0017,"nx":28,"ny":28,"refTime":"2023-09-14T21:00:00:Z","depth":0,"parameterNumber":2,"parameterNumberName":"U-component_of_WINDS"},"data":[0,0,0,0,0,0,0,0,0,0,0,0,0,0,0,0,0,0,0,0,0,0,0,0,0,0,0,0,0,0,0,0,0,0,0,0,0,0,0,0,0,0,0,0,0,0,0,0,0,0,0,0,0,0,0,0,0,0,-1.9717,-1.9717,0,-1.9644,-1.9643,-1.9643,-1.9527,-1.9525,-1.9523,-1.9521,-1.9448,-1.9448,-1.9448,0,0,0,0,0,0,0,0,0,0,0,0,0,-1.9759,-1.9759,-1.9717,-1.9717,-1.9716,-1.9644,-1.9643,-1.9642,-1.9528,-1.9525,-1.9523,-1.952,-1.9448,-1.9448,-1.9448,0,0,0,0,0,0,0,0,0,0,0,0,0,-1.9719,-1.9759,-1.9718,-1.965,-1.9643,-1.9645,-1.9643,-1.9642,-1.9528,-1.9525,-1.9522,-1.9519,-1.9448,-1.9448,-1.9448,-1.9511,0,0,-1.9448,-1.9448,0,0,0,0,0,0,0,0,-1.9722,-1.9718,-1.9661,-1.9654,-1.9647,-1.9592,-1.9631,-1.9598,-1.9529,-1.9572,-1.9521,-1.9518,-1.9499,-1.9494,-1.9488,-1.9508,-1.9504,-1.9448,-1.9448,-1.9448,-1.9448,0,0,0,0,0,0,0,-1.9725,-1.972,-1.9688,-1.966,-1.9652,-1.9624,-1.9614,-1.9625,-1.9554,-1.9568,-1.9559,-1.9552,-1.9494,-1.9488,-1.9485,-1.9503,-1.9448,-1.9448,-1.9448,-1.9448,-1.957,-1.9573,0,0,0,0,0,0,-1.9737,-1.9724,-1.9691,-1.9686,-1.9677,-1.9625,-1.9615,-1.9613,-1.9553,-1.9541,-1.9555,-1.9547,-1.9489,-1.9485,-1.9482,-1.955,-1.9448,-1.9448,-1.9448,-1.9567,-1.9571,-1.9574,0,0,0,0,0,0,-1.9739,-1.9735,-1.9694,-1.9703,-1.9695,-1.9628,-1.9626,-1.9613,-1.9606,-1.9543,-1.9531,-1.9561,-1.9487,-1.9482,-1.9504,-1.9546,-1.9448,-1.9448,-1.9563,-1.9568,-1.9573,-1.9688,0,0,0,0,0,0,-1.974,-1.9737,-1.9759,-1.9704,-1.9695,-1.9717,-1.9629,-1.9614,-1.9606,-1.9595,-1.9546,-1.9535,-1.9484,-1.9505,-1.9504,-1.9544,-1.9448,-1.9559,-1.9565,-1.9571,-1.968,-1.9696,-1.971,0,0,0,0,0,-1.9742,-1.9795,-1.9761,-1.9758,-1.9722,-1.972,-1.9715,-1.9654,-1.961,-1.9632,-1.9592,-1.9536,-1.9542,-1.9508,-1.9506,-1.9547,-1.9556,-1.9563,-1.9571,-1.9673,-1.9693,-1.971,0,0,0,0,0,0,-1.9858,-1.9787,-1.9748,-1.9785,-1.9759,-1.97,-1.9726,-1.9677,-1.9664,-1.9655,-1.9581,-1.9571,-1.9603,-1.9577,-1.9541,-1.9604,-1.954,-1.9548,-1.9619,-1.9637,-1.9652,-1.9657,-1.9448,0,0,0,0,0,-1.9888,-1.9891,-1.9829,-1.9868,-1.9857,-1.9794,-1.9791,-1.9747,-1.9718,-1.9706,-1.9668,-1.9642,-1.9637,-1.9636,-1.9629,-1.9677,-1.9664,-1.9704,-1.9719,-1.9731,-1.9738,-1.976,-1.9777,-1.9598,-1.9598,-1.9598,0,0,-1.9949,-1.9911,-1.9918,-1.989,-1.9865,-1.987,-1.9786,-1.9796,-1.9799,-1.9708,-1.9726,-1.9697,-1.9663,-1.9698,-1.9712,-1.9678,-1.9785,-1.9741,-1.9751,-1.9751,-1.9769,-1.9786,-1.9801,-1.9603,-1.9602,-1.9601,0,0,-2.0064,-2.0036,-2.0064,-2.004,-2.0003,-1.9961,-1.9969,-1.9917,-1.9894,-1.9911,-1.9843,-1.9846,-1.9841,-1.9819,-1.9808,-1.9915,-1.9862,-1.9915,-1.9992,-2.0014,-2.0028,-2.0041,-2.0077,-2.0092,-1.9922,-1.9922,-1.9922,0,-2.0145,-2.015,-2.0085,-2.0098,-2.0088,-2.0006,-2.0034,-2.0014,-1.9978,-1.9972,-1.9935,-1.9926,-1.9898,-1.9926,-1.9952,-1.9946,-1.9951,-1.9919,-2.0032,-2.0043,-2.0053,-2.0088,-2.0102,-1.9929,-1.9928,-1.9927,-1.9927,0,-2.0251,-2.0255,-2.0283,-2.0248,-2.0241,-2.0262,-2.0201,-2.0202,-2.0159,-2.0121,-2.0139,-2.0103,-2.0086,-2.009,-2.0048,-2.0112,-2.0092,-2.0045,-1.9979,-2.0078,-2.0109,-2.0122,-1.9938,-1.9936,-1.9934,-1.9932,0,0,-2.0434,-2.0364,-2.0375,-2.0357,-2.0311,-2.0313,-2.0331,-2.0314,-2.0316,-2.0294,-2.0306,-2.0304,-2.0259,-2.0246,-2.0202,-2.0222,-2.0307,-2.0171,-2.0169,-2.0197,-2.0374,-2.0409,-2.0425,-2.0273,-2.0276,-2.0277,-2.0376,0,-2.0538,-2.0563,-2.0505,-2.0544,-2.0547,-2.047,-2.0485,-2.0458,-2.0424,-2.0422,-2.0384,-2.0383,-2.0325,-2.0317,-2.0333,-2.0294,-2.0342,-2.0286,-2.0283,-2.0284,-2.0292,-2.0441,-2.0478,-2.0573,-2.0388,-2.039,-2.0392,0,-2.0661,-2.0644,-2.0684,-2.0634,-2.0633,-2.0648,-2.0628,-2.0627,-2.0596,-2.0569,-2.0555,-2.0503,-2.0517,-2.0455,-2.0473,-2.0436,-2.0432,-2.0413,-2.0415,-2.0411,-2.0343,-2.044,-2.0602,-2.0616,-2.041,-2.0409,-2.0407,0,-2.0789,-2.0777,-2.0798,-2.0786,-2.073,-2.0742,-2.0719,-2.0684,-2.0678,-2.066,-2.0655,-2.0641,-2.0632,-2.0622,-2.0568,-2.0528,-2.0592,-2.0526,-2.0569,-2.0571,-2.0585,-2.0584,-2.0747,-2.0586,-2.0586,-2.0585,-2.0585,0,-2.091,-2.0937,-2.0855,-2.0868,-2.0895,-2.083,-2.0859,-2.0829,-2.0799,-2.0804,-2.0738,-2.0745,-2.0673,-2.0673,-2.063,-2.0651,-2.0648,-2.0627,-2.0615,-2.0631,-2.0634,-2.0626,-2.0618,-2.0589,-2.0588,-2.0588,-2.0587,0,-2.1057,-2.1003,-2.1021,-2.0966,-2.0953,-2.0976,-2.0929,-2.0939,-2.09,-2.0909,-2.0907,-2.0847,-2.0843,-2.0788,-2.0772,-2.0744,-2.078,-2.0757,-2.0791,-2.0782,-2.0829,-2.0825,-2.099,-2.1008,-2.0839,-2.084,-2.0842,0,-2.1136,-2.1154,-2.1101,-2.11,-2.108,-2.108,-2.1072,-2.1009,-2.1004,-2.097,-2.0984,-2.0974,-2.0963,-2.096,-2.0915,-2.0903,-2.0877,-2.0937,-2.0875,-2.0891,-2.0876,-2.0875,-2.0876,-2.0949,-2.0951,-2.0953,-2.0954,0,-2.1282,-2.1254,-2.1246,-2.1229,-2.1222,-2.1206,-2.1185,-2.1188,-2.1119,-2.1117,-2.1111,-2.1103,-2.1086,-2.1077,-2.1057,-2.1033,-2.0982,-2.0974,-2.0983,-2.1,-2.1018,-2.1007,-2.0824,-2.097,-2.0969,-2.0968,-2.0967,-2.0966,-2.1395,-2.1408,-2.1372,-2.1365,-2.1343,-2.1326,-2.1332,-2.1295,-2.1289,-2.127,-2.1233,-2.1233,-2.1201,-2.1168,-2.115,-2.1149,-2.1118,-2.1132,-2.1135,-2.1139,-2.1147,-2.102,-2.1145,-2.1145,-2.1144,-2.1144,-2.1143,0,-2.1536,-2.1509,-2.1504,-2.1477,-2.1472,-2.1424,-2.1399,-2.1398,-2.1399,-2.1373,-2.1363,-2.1357,-2.1348,-2.1303,-2.1289,-2.1297,-2.1273,-2.1295,-2.1293,-2.1288,-2.1176,-2.1169,-2.1315,-2.1315,-2.1315,-2.1315,-2.1315,-2.1315,-2.1608,-2.1626,-2.1595,-2.1602,-2.1575,-2.1574,-2.1563,-2.1547,-2.1526,-2.1522,-2.1514,-2.1484,-2.1451,-2.1434,-2.1424,-2.1411,-2.1408,-2.1438,-2.1417,-2.1313,-2.1296,-2.128,-2.1273,-2.1438,-2.1438,-2.1528,-2.1529,-2.1529]},{"header":{"parameterUnit":"m.s-1","parameterCategory":1,"la1":30.2991,"la2":30.254,"lo1":-89.0895,"lo2":-89.0444,"dy":0.0017,"dx":0.0017,"nx":28,"ny":28,"refTime":"2023-09-14T21:00:00:Z","depth":0,"parameterNumber":3,"parameterNumberName":"V-component_of_WINDS"},"data":[0,0,0,0,0,0,0,0,0,0,0,0,0,0,0,0,0,0,0,0,0,0,0,0,0,0,0,0,0,0,0,0,0,0,0,0,0,0,0,0,0,0,0,0,0,0,0,0,0,0,0,0,0,0,0,0,0,0,-1.9428,-1.9428,0,-1.9394,-1.9394,-1.9393,-1.9408,-1.9408,-1.9409,-1.941,-1.937,-1.9368,-1.9366,0,0,0,0,0,0,0,0,0,0,0,0,0,-1.95,-1.9498,-1.9428,-1.9428,-1.9427,-1.9394,-1.9394,-1.9393,-1.9407,-1.9408,-1.9409,-1.941,-1.937,-1.9368,-1.9366,0,0,0,0,0,0,0,0,0,0,0,0,0,-1.9467,-1.9498,-1.9428,-1.9431,-1.943,-1.9394,-1.9394,-1.9393,-1.9407,-1.9408,-1.941,-1.9411,-1.9371,-1.9368,-1.9366,-1.9323,0,0,-1.9357,-1.9356,0,0,0,0,0,0,0,0,-1.9469,-1.9464,-1.9431,-1.943,-1.943,-1.9406,-1.9404,-1.9369,-1.9407,-1.9416,-1.941,-1.9411,-1.938,-1.9377,-1.9368,-1.9321,-1.932,-1.9357,-1.9355,-1.9354,-1.9353,0,0,0,0,0,0,0,-1.9471,-1.9466,-1.9414,-1.943,-1.943,-1.9431,-1.9428,-1.9398,-1.9391,-1.9415,-1.9416,-1.9412,-1.9381,-1.937,-1.9367,-1.9319,-1.9357,-1.9354,-1.9353,-1.9352,-1.9234,-1.9232,0,0,0,0,0,0,-1.9474,-1.9468,-1.9416,-1.9413,-1.9453,-1.9429,-1.9425,-1.9413,-1.9392,-1.939,-1.9411,-1.9413,-1.9374,-1.937,-1.9365,-1.9313,-1.9354,-1.9351,-1.935,-1.9235,-1.9233,-1.9232,0,0,0,0,0,0,-1.9476,-1.9469,-1.9417,-1.9441,-1.9434,-1.9427,-1.9412,-1.9411,-1.9401,-1.9389,-1.9387,-1.9402,-1.9375,-1.9369,-1.9333,-1.9312,-1.935,-1.9348,-1.9237,-1.9235,-1.9232,-1.9208,0,0,0,0,0,0,-1.9478,-1.947,-1.9455,-1.9441,-1.9433,-1.9387,-1.9411,-1.941,-1.9397,-1.9399,-1.938,-1.9378,-1.9376,-1.9338,-1.9331,-1.9308,-1.9345,-1.9239,-1.9236,-1.9233,-1.9211,-1.9205,-1.9201,0,0,0,0,0,-1.948,-1.9449,-1.9455,-1.9448,-1.9415,-1.9386,-1.9382,-1.9381,-1.9395,-1.9379,-1.9371,-1.9379,-1.9316,-1.9334,-1.9326,-1.9303,-1.924,-1.9237,-1.9233,-1.9213,-1.9206,-1.9201,0,0,0,0,0,0,-1.946,-1.9447,-1.9453,-1.9417,-1.9403,-1.9389,-1.9369,-1.9375,-1.9355,-1.9357,-1.9356,-1.9352,-1.9314,-1.9305,-1.9326,-1.9259,-1.928,-1.9275,-1.9267,-1.926,-1.9255,-1.9257,-1.9343,0,0,0,0,0,-1.9452,-1.9431,-1.9421,-1.9389,-1.9382,-1.9377,-1.9364,-1.9365,-1.9349,-1.9343,-1.9332,-1.9315,-1.9291,-1.9276,-1.9253,-1.921,-1.9204,-1.919,-1.9185,-1.9181,-1.9176,-1.9149,-1.9142,-1.9221,-1.9221,-1.9221,0,0,-1.9433,-1.9424,-1.9411,-1.9385,-1.9374,-1.935,-1.9371,-1.9346,-1.9328,-1.9339,-1.9304,-1.9295,-1.9276,-1.9236,-1.9217,-1.9227,-1.9153,-1.9177,-1.9173,-1.917,-1.9145,-1.9138,-1.9131,-1.9219,-1.9219,-1.9219,0,0,-1.9388,-1.938,-1.9352,-1.9341,-1.9325,-1.9321,-1.9314,-1.9299,-1.9294,-1.926,-1.9267,-1.9244,-1.9204,-1.9189,-1.9177,-1.9124,-1.9129,-1.9117,-1.909,-1.9064,-1.9058,-1.9052,-1.9031,-1.9024,-1.9113,-1.9113,-1.9112,0,-1.9367,-1.9334,-1.9336,-1.931,-1.9297,-1.9308,-1.9278,-1.9267,-1.9243,-1.9233,-1.9245,-1.9193,-1.9181,-1.9136,-1.9123,-1.9114,-1.9103,-1.9118,-1.9059,-1.9054,-1.9048,-1.9028,-1.902,-1.9111,-1.9111,-1.9111,-1.9111,0,-1.9307,-1.9284,-1.9263,-1.9241,-1.9226,-1.9198,-1.9195,-1.9179,-1.9181,-1.9176,-1.9139,-1.9125,-1.9099,-1.9089,-1.909,-1.9043,-1.9049,-1.906,-1.908,-1.9039,-1.902,-1.9012,-1.9109,-1.9109,-1.911,-1.911,0,0,-1.9247,-1.9227,-1.9219,-1.9209,-1.9191,-1.9172,-1.9144,-1.912,-1.9105,-1.9088,-1.9062,-1.9028,-1.9037,-1.9023,-1.9022,-1.9,-1.8957,-1.9014,-1.9013,-1.9001,-1.8901,-1.8891,-1.8882,-1.8961,-1.8959,-1.8958,-1.8901,0,-1.9199,-1.9151,-1.9152,-1.9106,-1.9083,-1.9092,-1.9067,-1.9052,-1.9046,-1.9024,-1.9016,-1.8991,-1.9007,-1.8998,-1.8976,-1.8967,-1.8936,-1.8971,-1.8934,-1.8932,-1.8936,-1.8873,-1.8863,-1.881,-1.8894,-1.8893,-1.8892,0,-1.9135,-1.9118,-1.907,-1.9054,-1.9045,-1.9022,-1.8999,-1.8979,-1.8961,-1.8958,-1.8942,-1.8945,-1.8913,-1.8935,-1.889,-1.8914,-1.8898,-1.8891,-1.8889,-1.8883,-1.8908,-1.8863,-1.8793,-1.8784,-1.8881,-1.8882,-1.8882,0,-1.9093,-1.9058,-1.9024,-1.9015,-1.8997,-1.898,-1.8971,-1.8955,-1.894,-1.8919,-1.8909,-1.8884,-1.887,-1.885,-1.8845,-1.8862,-1.8798,-1.8821,-1.8792,-1.8792,-1.8777,-1.8777,-1.8701,-1.8771,-1.8771,-1.8771,-1.8772,0,-1.9038,-1.9008,-1.9005,-1.8984,-1.8949,-1.895,-1.8915,-1.8908,-1.8893,-1.8869,-1.8875,-1.8852,-1.8848,-1.8823,-1.8819,-1.878,-1.8774,-1.8769,-1.8767,-1.8767,-1.8767,-1.8755,-1.8758,-1.8769,-1.877,-1.877,-1.877,0,-1.8984,-1.8982,-1.8945,-1.8931,-1.8926,-1.8901,-1.8888,-1.8866,-1.8861,-1.883,-1.8823,-1.8813,-1.8784,-1.8778,-1.8743,-1.874,-1.8693,-1.8697,-1.87,-1.8699,-1.867,-1.8671,-1.8581,-1.8568,-1.8649,-1.8648,-1.8648,0,-1.8948,-1.8925,-1.8908,-1.8894,-1.8884,-1.886,-1.8845,-1.8844,-1.8827,-1.8805,-1.8785,-1.8757,-1.8735,-1.8687,-1.8675,-1.8648,-1.8649,-1.8619,-1.8645,-1.8644,-1.8645,-1.8646,-1.8642,-1.8613,-1.8613,-1.8612,-1.8611,0,-1.8883,-1.8882,-1.8861,-1.8839,-1.8821,-1.8803,-1.8785,-1.8772,-1.8769,-1.8749,-1.872,-1.8703,-1.8667,-1.8638,-1.861,-1.8599,-1.8603,-1.8604,-1.8595,-1.8593,-1.8594,-1.859,-1.8683,-1.8605,-1.8606,-1.8606,-1.8607,-1.8607,-1.8835,-1.8814,-1.8799,-1.8774,-1.8762,-1.8745,-1.8724,-1.8716,-1.8692,-1.8664,-1.8665,-1.8632,-1.8613,-1.8577,-1.8563,-1.8536,-1.8545,-1.8533,-1.8529,-1.8526,-1.8522,-1.8601,-1.8531,-1.8531,-1.8531,-1.8531,-1.8532,0,-1.8768,-1.8759,-1.8736,-1.8712,-1.8692,-1.8701,-1.8682,-1.8663,-1.8635,-1.8618,-1.8596,-1.8561,-1.8532,-1.8518,-1.8489,-1.847,-1.8471,-1.8462,-1.8462,-1.8458,-1.8517,-1.8526,-1.8461,-1.8461,-1.8461,-1.8461,-1.8461,-1.8461,-1.873,-1.8695,-1.8692,-1.865,-1.864,-1.8609,-1.8597,-1.8581,-1.8567,-1.8528,-1.8505,-1.8497,-1.848,-1.845,-1.8423,-1.8419,-1.8407,-1.8396,-1.8393,-1.8448,-1.8455,-1.8461,-1.847,-1.8394,-1.8394,-1.8337,-1.8336,-1.8336]}]]